COSMOS 2251 DEB, 33940

Orbit data source: Space-Track

COSMOS 2251 DEB, 33940 is space debris in LEO originally from a launch on Wed, 16 Jun 1993 UTC launched from the Plesetsk Missile And Space Complex (PKMTR). The debris from Iridium 33, an American commercial communications satellite, has been tracked extensively since its accidental collision with the defunct Russian satellite Cosmos 2251 in 2009. This event, occurring at high speed in low Earth orbit (LEO), generated thousands of pieces of space debris, significantly increasing the risk of further collisions. The Iridium 33 debris cloud has impacted space traffic management and orbital debris mitigation strategies, making it a subject of ongoing study in space situational awareness.

Loading next visibility...
Identifier
33940, 1993-036EV
Orbit
LEO
Country
Flag of CISCIS
Related business
Manufacturer
Unknown
Mission
Spacecraft
Bus & Motor
Unknown
Mass
Unknown
Launch date (UTC)
1993-06-16 (32 years ago)
Launch vehicle
Unknown
Launch site
Plesetsk Missile And Space Complex (PKMTR)
Object type
Payload
Rocket body
Debris
Shape & HBR
Unknown shape, 0.2 m
Radar Cross Section
Small (<0.1 m²)

Expand to show TLE details & history
Last TLE update: 4 hours ago

TLE from 4 hours ago
0 COSMOS 2251 DEB
1 33940U 93036EV  25299.84820160  .00006092  00000-0  13246-2 0  9991
2 33940  74.0407 232.7300 0012735 312.6730 107.4843 14.58179412879104
Epoch: 2025-10-26T20:21Z
TLE epoch observation values (Epoch: 2025-10-26T20:21:24.618Z)
Latitude
56.73753°
Longitude
-82.38233°
Altitude
710.924 km
Speed
7.504 km/s
True Right ascension
17h 13m 42s
True Declination
56° 34' 43"
Sunlit
Object was in daylight at epoch
Visualization orbit readout
Latitude
Unknown
Longitude
Unknown
Altitude
Unknown
Speed
Unknown
Apparent Right ascension
Unknown
Apparent Declination
Unknown
Sunlit
N/A
Visualization observer readout
Local Sidereal Time
20:12:51
Azimuth
Unknown
Elevation
Unknown
Doppler factor
Unknown
Orbital elements
Apogee altitude
705.667 km
Perigee altitude
687.648 km
Semi-major axis
7,074.795 km
Eccentricity
0.00127
Inclination
74.0407°
RAAN
232.73°
Arg. of periapsis
312.673°
True anomaly
107.62342°
Mean anomaly
107.4843°
Eccentric anomaly
107.55387°
Mean motion
3.64731 °/min
Orbital period
98.7 mins
BSTAR
0.0013246
Loading maneuver chart data...
Computing Atmospheric mass density...
Loading historical data...
Loading historical data...
Loading historical data...
Loading historical data...
Loading historical data...
Loading historical data...
Loading historical data...

Documentation

Showing up to 5 results
|